Location: NJAA Observatory
(40.6819°N, 74.8979°W)
Time: 06:31:33
(UTC-04:00)

Iridium 4 - Visible Passes

Search period start: 27 April 2015 00:00
Search period end: 07 May 2015 00:00
Orbit: 774 x 777 km, 86.4° (Epoch: 26 April)

Date Brightness Start Highest point End Pass type
(mag) Time Alt. Az. Time Alt. Az. Time Alt. Az.
27 Apr 8.4 04:29:41 10° ESE 04:32:39 16° E 04:35:50 10° NE visible
29 Apr 7.0 04:59:44 10° SSE 05:04:31 40° E 05:09:24 10° NNE visible
30 Apr 8.0 04:26:40 10° SE 04:30:30 22° E 04:34:29 10° NNE visible
01 May 8.5 03:55:02 10° E 03:56:34 12° ENE 03:58:25 10° ENE visible
02 May 6.3 04:57:24 10° SSE 05:02:27 56° E 05:07:33 10° NNE visible
03 May 7.4 04:23:58 10° SE 04:28:22 30° E 04:32:54 10° NNE visible
04 May 8.2 03:51:22 10° ESE 03:54:23 16° E 03:57:38 10° NE visible
05 May 5.7 04:55:13 10° S 05:00:23 78° E 05:05:37 10° N visible
06 May 6.8 04:21:27 10° SSE 04:26:15 41° E 04:31:08 10° NNE visible
